Reno - Stead, NV

11:46 AM PST on December 17, 2017 (GMT -0800)
Reno - Stead

Weather History for KRTS - November, 2011

Change the Weather History Date:

Sunday, November 6, 2011

  Actual Average (KRNO) Record (KRNO)
Temperature  
Mean Temperature 32 °F -  
Max Temperature 39 °F 60 °F 75 °F (1991)
Min Temperature 26 °F 29 °F 9 °F (1961)
Degree Days  
Heating Degree Days 32    
Moisture  
Dew Point 27 °F    
Average Humidity 80    
Maximum Humidity 100    
Minimum Humidity 52    
Precipitation  
Precipitation 0.00 in - - ()
Sea Level Pressure  
Sea Level Pressure 29.93 in    
Wind  
Wind Speed 5 mph ()    
Max Wind Speed 17 mph    
Max Gust Speed 22 mph    
Visibility 9.4 miles    
Events Rain , Snow    
Averages and records for this station are not official NWS values.
T = Trace of Precipitation, MM = Missing Value Source: Averaged Metar Reports

Daily Weather History Graph

Daily Weather History Graph

Search for Another Location

Airport or City:

Trip Planner

Search our weather history database for the weather conditions in past years. The results will help you decide how hot, cold, wet, or windy it might be!

Date:

Astronomy

Nov. 06, 2011 Rise Set
Actual Time 6:33 AM PST 4:52 PM PST
Civil Twilight 6:05 AM PST 5:20 PM PST
Nautical Twilight 5:33 AM PST 5:52 PM PST
Astronomical Twilight 5:01 AM PST 6:24 PM PST
Moon 2:38 PM PST (11/6) 2:45 AM PST (11/6)
Length of Visible Light 11h 15m
Length of Day
10h 18m
Waxing Gibbous, 86% of the Moon is Illuminated
Nov 6
Waxing Gibbous
Nov 10
Full
Nov 18
Last Quarter
Nov 24
New
Dec 2
First Quarter

Hourly Weather History & Observations

Time (PST) Temp. Windchill Dew Point Humidity Pressure Visibility Wind Dir Wind Speed Gust Speed Precip Events Conditions
1:15 AM 32.0 °F - 28.4 °F 87% 29.84 in 10.0 mi Calm Calm - N/A   Overcast
1:35 AM 32.0 °F - 28.4 °F 87% 29.84 in 10.0 mi Calm Calm - N/A   Mostly Cloudy
1:50 AM 32.0 °F - 28.4 °F 87% 29.84 in 10.0 mi Calm Calm - N/A   Mostly Cloudy
2:10 AM 30.2 °F 26.7 °F 28.4 °F 93% 29.85 in 8.0 mi NNE 3.5 mph - N/A Snow Light Snow
2:55 AM 32.0 °F - 30.2 °F 93% 29.84 in 7.0 mi Calm Calm - N/A Snow Light Snow
3:10 AM 30.2 °F 25.4 °F 28.4 °F 93% 29.84 in 8.0 mi North 4.6 mph - N/A Snow Light Snow
3:30 AM 30.2 °F - 28.4 °F 93% 29.84 in 10.0 mi Calm Calm - N/A   Overcast
3:55 AM 30.2 °F 26.7 °F 28.4 °F 93% 29.84 in 7.0 mi South 3.5 mph - N/A   Overcast
4:35 AM 30.2 °F 26.7 °F 30.2 °F 100% 29.85 in 9.0 mi SE 3.5 mph - N/A   Overcast
4:55 AM 30.2 °F - 28.4 °F 93% 29.86 in 6.0 mi Calm Calm - N/A   Overcast
5:10 AM 30.2 °F 26.7 °F 28.4 °F 93% 29.85 in 9.0 mi NE 3.5 mph - N/A   Overcast
5:30 AM 28.4 °F - 28.4 °F 100% 29.86 in 9.0 mi Calm Calm - N/A   Overcast
5:50 AM 28.4 °F 24.6 °F 28.4 °F 100% 29.87 in 9.0 mi North 3.5 mph - N/A   Mostly Cloudy
6:10 AM 28.4 °F 23.3 °F 28.4 °F 100% 29.87 in 10.0 mi NNW 4.6 mph - N/A   Overcast
6:35 AM 28.4 °F 23.3 °F 28.4 °F 100% 29.88 in 9.0 mi North 4.6 mph - N/A   Overcast
6:50 AM 28.4 °F 24.6 °F 28.4 °F 100% 29.88 in 10.0 mi North 3.5 mph - N/A   Overcast
7:10 AM 28.4 °F - 28.4 °F 100% 29.89 in 10.0 mi Calm Calm - N/A   Overcast
7:30 AM 28.4 °F - 28.4 °F 100% 29.90 in 9.0 mi Calm Calm - N/A   Overcast
7:55 AM 28.4 °F - 28.4 °F 100% 29.91 in 9.0 mi Calm Calm - N/A   Overcast
8:15 AM 32.0 °F 28.7 °F 28.4 °F 87% 29.91 in 10.0 mi North 3.5 mph - N/A   Overcast
8:35 AM 32.0 °F 27.5 °F 28.4 °F 87% 29.91 in 10.0 mi SE 4.6 mph - N/A   Mostly Cloudy
8:55 AM 32.0 °F 26.4 °F 30.2 °F 93% 29.91 in 10.0 mi SE 5.8 mph - N/A   Mostly Cloudy
9:15 AM 32.0 °F 26.4 °F 30.2 °F 93% 29.92 in 10.0 mi ESE 5.8 mph - N/A   Scattered Clouds
9:55 AM 37.4 °F 34.9 °F 28.4 °F 70% 29.92 in 10.0 mi SE 3.5 mph - N/A   Clear
10:15 AM 37.4 °F - 26.6 °F 65% 29.92 in 10.0 mi Calm Calm - N/A   Clear
10:35 AM 39.2 °F 35.9 °F 26.6 °F 61% 29.93 in 10.0 mi SW 4.6 mph - N/A   Clear
11:15 AM 39.2 °F 33.6 °F 24.8 °F 56% 29.92 in 10.0 mi WNW 8.1 mph - N/A   Overcast
11:35 AM 39.2 °F 32.0 °F 24.8 °F 56% 29.91 in 10.0 mi NW 11.5 mph - N/A   Mostly Cloudy
11:55 AM 39.2 °F 31.6 °F 24.8 °F 56% 29.91 in 10.0 mi West 12.7 mph - N/A   Partly Cloudy
12:15 PM 39.2 °F 34.2 °F 24.8 °F 56% 29.91 in 10.0 mi SW 6.9 mph - N/A   Mostly Cloudy
12:30 PM 39.2 °F 33.6 °F 24.8 °F 56% 29.91 in 10.0 mi NW 8.1 mph 18.4 mph N/A Rain Light Rain
1:10 PM 39.2 °F 32.5 °F 23.0 °F 52% 29.90 in 10.0 mi WNW 10.4 mph 16.1 mph N/A   Scattered Clouds
1:35 PM 39.2 °F 31.6 °F 24.8 °F 56% 29.90 in 10.0 mi NNW 12.7 mph 19.6 mph N/A   Mostly Cloudy
1:55 PM 39.2 °F 31.2 °F 24.8 °F 56% 29.90 in 10.0 mi NW 13.8 mph 21.9 mph N/A   Overcast
2:15 PM 39.2 °F 30.2 °F 24.8 °F 56% 29.91 in 10.0 mi NW 17.3 mph - N/A   Overcast
2:35 PM 39.2 °F 31.2 °F 26.6 °F 61% 29.91 in 10.0 mi NW 13.8 mph - N/A   Overcast
2:55 PM 39.2 °F 31.6 °F 26.6 °F 61% 29.92 in 10.0 mi NW 12.7 mph 18.4 mph N/A   Mostly Cloudy
3:15 PM 39.2 °F 30.8 °F 26.6 °F 61% 29.93 in 10.0 mi NW 15.0 mph - N/A   Mostly Cloudy
3:35 PM 37.4 °F 28.5 °F 26.6 °F 65% 29.94 in 10.0 mi NW 15.0 mph - N/A   Overcast
3:45 PM 37.4 °F 28.5 °F 26.6 °F 65% 29.94 in 10.0 mi NW 15.0 mph 19.6 mph N/A   Overcast
4:10 PM 37.4 °F 28.9 °F 24.8 °F 60% 29.94 in 10.0 mi NW 13.8 mph - N/A   Overcast
4:30 PM 37.4 °F 28.9 °F 24.8 °F 60% 29.95 in 10.0 mi NW 13.8 mph - N/A   Overcast
4:55 PM 35.6 °F 27.1 °F 24.8 °F 65% 29.96 in 10.0 mi NW 12.7 mph - N/A   Overcast
5:15 PM 35.6 °F 26.2 °F 24.8 °F 65% 29.96 in 10.0 mi NW 15.0 mph - N/A   Overcast
5:35 PM 35.6 °F 27.1 °F 26.6 °F 70% 29.98 in 10.0 mi NW 12.7 mph 18.4 mph N/A   Overcast
5:50 PM 35.6 °F 26.6 °F 26.6 °F 70% 29.98 in 10.0 mi WNW 13.8 mph - N/A   Overcast
6:10 PM 33.8 °F 25.8 °F 26.6 °F 75% 29.99 in 10.0 mi NW 10.4 mph - N/A   Overcast
6:35 PM 33.8 °F 25.3 °F 26.6 °F 75% 30.00 in 10.0 mi NNW 11.5 mph - N/A   Overcast
6:55 PM 33.8 °F 25.3 °F 26.6 °F 75% 30.01 in 10.0 mi North 11.5 mph - N/A   Mostly Cloudy
7:15 PM 32.0 °F 24.2 °F 30.2 °F 93% 30.02 in 4.0 mi NNE 9.2 mph - N/A Snow Light Snow
7:35 PM 32.0 °F 26.4 °F 32.0 °F 100% 30.03 in 2.5 mi North 5.8 mph - N/A Snow Light Snow
8:10 PM 32.0 °F 26.4 °F 32.0 °F 100% 30.04 in 9.0 mi West 5.8 mph - N/A Snow Light Snow
8:55 PM 32.0 °F 28.7 °F 28.4 °F 87% 30.05 in 10.0 mi WNW 3.5 mph - N/A   Overcast
9:15 PM 30.2 °F 23.4 °F 26.6 °F 86% 30.06 in 10.0 mi North 6.9 mph - N/A   Overcast
9:35 PM 30.2 °F 26.7 °F 28.4 °F 93% 30.06 in 10.0 mi ENE 3.5 mph - N/A   Mostly Cloudy
9:55 PM 28.4 °F 20.4 °F 24.8 °F 86% 30.07 in 10.0 mi North 8.1 mph - N/A   Scattered Clouds
10:15 PM 26.6 °F 20.0 °F 24.8 °F 93% 30.08 in 10.0 mi North 5.8 mph - N/A   Mostly Cloudy
10:30 PM 26.6 °F 19.1 °F 24.8 °F 93% 30.08 in 10.0 mi NNW 6.9 mph - N/A   Mostly Cloudy
10:55 PM 28.4 °F 23.3 °F 24.8 °F 86% 30.09 in 10.0 mi North 4.6 mph - N/A   Overcast